NOAA 16 DEB

Satellite information

Favourite Embed

Satellite Type and Status

DEBRISIN ORBIT

Key statistics

Satellite NOAA 16 DEB at a glance.

Uptime

8995

Days in orbit

Revolutions

≈ 14.8

Per day

Orbit

SSO

Sun Synchronous Orbit

Inclination

99.0

Latest

Satellite identification and parameters

Extended collection of information and parameters for NOAA 16 DEB.

Object identification

Identified? True

Debris? True

Object name: NOAA 16 DEB

International designator: 2000-055SL

Object number (NORAD): 42392

Object ID (CCSDS): 42392

Country: UNITED STATES OF AMERICA (US)

Current information (Y/N): Y

RCS size: SMALL

Orbital parameters

Period: 97.441 minutes

Inclination: 98.9671 deg

SMA: 7014.382 km

Apoapsis: 644.614 km

Periapsis: 627.881 km

RAAN: 321.807 deg

Eccentricy: 0.0011928

Argument of periapsis: 218.5844 deg

Mean anomaly: 141.4512 deg

Mean motion: 14.77810003 rev/day

Mean motion (dot): 0.00041158 rev/day2

B* drag term: 0.0056981 1/REarth

Two-line elements (TLE)

Creation date: May 8, 2025, 3:01 a.m.

Reference frame: TEME

Reference center: EARTH

Epoch: May 7, 2025, 9:10 a.m. UTC

TLE line 0: 0 NOAA 16 DEB

TLE line 1: 1 42392U 00055SL 25127.38197148 .00041158 00000-0 56981-2 0 9998

TLE line 2: 2 42392 98.9671 321.8070 0011928 218.5844 141.4512 14.77810003476204

Live tracking on map

Real-time ground track for satellite NOAA 16 DEB.

In-orbit conjunctions

A list of the most updated potential collisions computed for object NOAA 16 DEB.

Target Orbit TCA Probability of collision Miss distance Type
ORBVIEW 1 (MICROLAB) LEO 2025-01-26 17:32:04 0.00109872 185.0 (m) PAYLOAD
ORBVIEW 1 (MICROLAB) LEO 2025-01-26 15:53:43 0.0006778677 270.0 (m) PAYLOAD

Associated space launch

The NOAA K, L and M POES satellites begin the fifth generation of improved environmental monitoring in support of NOAA missions. The instrument payload has significant improvements and additions/deletions. The instrument changes have effected the spacecraft subsystems and data formats.

NOAA 16 DEB was lifted into orbit during the mission ‘Titan II SLV | NOAA 16’, on board a Titan II SLV space rocket.

The launch took place on Sept. 21, 2000, 10:22 a.m. from Space Launch Complex 4W.

For more information about the launch, click the button.

Launch to space Titan II SLV | NOAA 16
Titan II SLV | NOAA 16

Agency: N/A

Status: Launch Successful

Launch date: Sept. 21, 2000, 10:22 a.m. UTC

Rocket: Titan II SLV

Launch pad: Space Launch Complex 4W

Location: Vandenberg SFB, CA, USA

...

Latest news about this satellite

There are no fresh news available about this satellite. Check back as we update our databases every day.


Newsletter sign-up

Weekly statistics, charts and insights to help you stay on top of the space industry.